Preview of NWS' New Version of Forecast
This preview is not operational and should not be used for support decisions.

Regional Weather Roundup (RWR)

Issued by Philadelphia/Mt Holly (PHI)

                            
000
ASUS41 KPHI 230412
RWRPHI

REGIONAL WEATHER ROUNDUP
NATIONAL WEATHER SERVICE MOUNT HOLLY NJ
1200 AM EDT SAT MAR 23 2019

NOTE:  "FAIR" INDICATES FEW OR NO CLOUDS BELOW 12,000 FEET WITH NO
SIGNIFICANT WEATHER AND/OR OBSTRUCTIONS TO VISIBILITY.

 * = STATION DOES NOT REPORT PRECIPITATION (E.G. RAIN, SNOW, ETC.) 
        OR FOG.

NJZ015>026-230500-
SOUTHERN NEW JERSEY
  
CITY           SKY/WX    TMP DP  RH WIND       PRES   REMARKS
POMONA         FAIR      41  27  57 W21G32    29.66R                  
WILDWOOD*      FAIR      42  25  50 W20G31    29.73R                  
MILLVILLE      FAIR      40  26  57 W17G25    29.71R WCI  31          
MOUNT HOLLY    FAIR      41  23  48 W20G36    29.66R                  
TRENTON        FAIR      38  26  62 W14G26    29.62R WCI  30          

$$
NJZ001>014-230500-
NORTHERN NEW JERSEY
  
CITY           SKY/WX    TMP DP  RH WIND       PRES   REMARKS
SUSSEX         CLOUDY    36  25  64 NW10G25   29.58R WCI  28          
ANDOVER*         N/A     35  24  64 N10G23    29.58R WCI  27          
MORRISTOWN     FLURRIES  37  30  75 W13       29.57R WCI  29          
NEWARK         MOCLDY    40  27  59 W22G35    29.55R WCI  30          
TETERBORO      CLOUDY    39  28  64 W21G33    29.54R WCI  29          
CALDWELL       MIX PCPN  36  31  82 W16G25    29.56R WCI  26          
SOMERVILLE     CLOUDY    39  28  64 NW9G24    29.59R WCI  33          
ALLAIRE*       FAIR      39  28  64 W16G26    29.59R WCI  30          
TOMS RIVER*    FAIR      39  29  67 W16G28    29.62R WCI  30          

$$
PAZ043-044-047-054-055-060>062-066>071-230500-
EASTERN PENNSYLVANIA
  
CITY           SKY/WX    TMP DP  RH WIND       PRES   REMARKS
PHILADELPHIA   FAIR      41  20  43 NW25G35   29.69R                  
NORTH PHILA    FAIR      40  24  53 W23G31    29.66R WCI  30          
BLUE BELL*     MOCLDY    37  23  56 W12G20    29.68R WCI  30          
DOYLESTOWN     FAIR      37  23  56 W15G24    29.63R WCI  28          
QUAKERTOWN*    MOCLDY    37  23  56 SW10G21   29.65R WCI  30          
PERKASIE*      MOCLDY    36  23  60 W17G29    29.65R WCI  25          
POTTSTOWN      FAIR      36  22  56 W14G24    29.69R WCI  27          
LANCASTER      FAIR      37  24  59 NW22G31   29.73R WCI  26          
COATESVILLE    FAIR      36  25  64 W31G43    29.71S WCI  22          
READING        FAIR      37  25  61 W17G28    29.69R WCI  27          
ALLENTOWN      CLOUDY    39  23  52 W18G29    29.64R WCI  30          
MOUNT POCONO   LGT SNOW  27  24  89 NW23G37   29.53R FOG     WCI  12  
HAZLETON       CLOUDY    32  21  64 W12G23    29.64R WCI  23          
LEHIGHTON      CLOUDY    36  25  64 W9G17     29.66R WCI  29          
WILKES BARRE   LGT SNOW  31  27  85 NW12      29.65R FOG     WCI  22  

$$
DEZALL-MDZ008-012-015-019-020-230500-
DELAWARE AND EASTERN MARYLAND
  
CITY           SKY/WX    TMP DP  RH WIND       PRES   REMARKS
WILMINGTON     FAIR      40  23  50 NW21G35   29.73R WCI  30          
GEORGETOWN     MOCLDY    44  24  45 W7G24     29.78R                  
EASTON         FAIR      42  25  50 W24G32    29.83S                  
PATUXENT       FAIR      42  25  50 W21G35    29.85R                  
OCEAN CITY     FAIR      41  25  53 NW14G30   29.79R                  
WALLOPS ISLAND FAIR      44  23  43 NW23G40   29.82R                  
CAMBRIDGE      MOCLDY    43  25  49 W12G18    29.83R                  
SALISBURY      FAIR      41  25  53 W14G23    29.81R                  

$$
PAZ001-021-NYZ056-072-MDZ011-DCZ001-230500-
OTHER NEARBY LOCATIONS
  
CITY           SKY/WX    TMP DP  RH WIND       PRES   REMARKS
HARRISBURG     FAIR      36  21  54 NW28G36   29.77R WCI  23          
STATE COLLEGE  CLOUDY    30  19  64 W17G24    29.82R WCI  18          
WILLIAMSPORT   CLOUDY    35  20  54 NW28G40   29.74R WCI  22          
BINGHAMTON     LGT SNOW  24  20  84 NW16G29   29.61R FOG     WCI  11  
NEW YORK CITY  CLOUDY    40  27  59 W17G28    29.56R WCI  31          
BALTIMORE      FAIR      40  22  48 NW21G39   29.80R WCI  30          
WASHINGTON DC  FAIR      42  25  50 W22G31    29.87R                  

$$